Location: Gleizolles
(44.4833°N, 6.7667°E)
Time: 16:23:11
(UTC+00:00)

Explorer 7 - Pass Details

Date: 24 June 2024
Orbit: 465 x 619 km, 50.3° (Epoch: 12 July)

Event Time Altitude Azimuth Distance (km) Brightness Sun altitude
Rises 14:58:11 0° 297° (WNW) 2,558 10.8 43.9°
Reaches altitude 10° 15:00:23 10° 295° (WNW) 1,657 10.0 43.5°
Maximum altitude 15:04:06 77° 210° (SSW) 487 7.5 42.9°
Drops below altitude 10° 15:07:44 10° 125° (SE) 1,614 9.0 42.2°
Sets 15:09:51 0° 123° (ESE) 2,484 9.8 41.8°
